CAPE
229 437 152 246 514 717 377 223 143 193 162 88 26 134 161 380 47 0 0 20 173 474 658 834 1812 2060 2054 2550 2807 2716 3298 3144 2850 2828 2517 2687 2585 2371 2405 1948 1828 1782 1762 1889 1987 2057 2357 2870 2249
281 531 374 74 587 469 400 413 186 270 311 232 230 197 159 605 53 0 15 54 263 546 658 938 1940 2238 1975 2433 2448 2710 2658 2310 2665 3091 2845 2794 2545 2408 2238 1950 1836 1781 1804 1830 1775 1742 1990 2267 2687
157 748 526 392 393 488 471 403 374 301 217 172 227 86 68 268 4 0 67 178 366 751 779 1371 1887 2404 1818 2041 2519 2699 2689 2209 1347 1294 981 2304 2275 2310 2204 2025 1951 1796 1730 1704 1673 1701 1740 1638 1676
367 432 231 675 472 388 403 477 368 257 293 203 102 323 55 25 1 43 61 337 481 761 835 1468 1828 1800 1792 1727 2142 1896 1790 1373 683 422 343 1340 1738 2002 1985 1909 1958 1855 1908 1932 1896 1872 1755 1523 1501
282 142 686 409 195 320 563 637 354 330 563 555 349 286 48 315 117 73 111 391 569 624 1158 1336 2403 2364 2286 1950 1959 2198 1549 1503 820 789 231 382 728 1397 1822 1758 1704 1812 1941 1966 1861 1822 1724 1621 1562
297 141 360 310 404 506 419 799 393 513 517 571 315 92 311 478 272 68 126 326 679 777 1174 1182 1889 2078 2311 2065 1963 2206 2160 1524 951 528 285 292 350 786 1286 1746 1882 1944 1981 1817 1662 1823 1848 1622 1540
383 377 294 415 607 825 825 767 704 506 474 450 473 723 576 537 206 101 99 149 633 903 1119 1031 1112 1344 1503 1952 1851 1911 1896 1613 1141 383 618 418 280 250 939 981 1624 1603 1375 1405 1567 1591 1737 1769 1667
207 246 254 225 356 410 880 896 678 494 583 505 591 698 653 742 181 135 111 75 158 752 1142 1159 1298 1314 1690 1299 2033 1901 1683 1110 1005 689 269 957 30 9 333 410 937 1150 1405 1369 1415 1493 1499 1712 1761
0 91 292 286 331 293 1185 994 804 822 633 465 732 613 592 555 170 130 184 303 340 620 964 1098 1158 1454 1440 1939 1577 2268 1688 1461 1051 812 460 484 17 12 2 146 1095 1213 1138 1190 1241 1589 1684 1658 1787
0 51 91 119 349 563 1174 946 1143 1009 909 992 526 637 741 421 270 206 261 316 386 749 1012 1043 1078 1157 1581 1144 1737 2032 1957 1022 1032 1321 1006 1063 82 34 0 38 426 1048 981 778 950 1761 1641 1727 1527
1 0 5 43 295 484 1070 751 1198 1103 821 784 963 822 825 517 415 275 313 335 433 861 1216 1166 1520 1581 1690 1698 1715 1755 1592 1958 1577 1301 1304 586 484 678 826 946 401 437 707 920 548 1617 1552 1571 1920
0 0 3 20 398 789 1028 1024 948 1055 552 739 1005 880 892 821 807 565 442 473 606 950 1195 1419 1723 1961 2169 1997 1897 1718 1674 2206 2262 1606 1349 1650 752 717 928 1356 366 628 468 709 642 1481 1679 1731 2115
4 0 0 25 216 556 827 1028 929 959 955 910 849 837 958 965 952 875 685 637 849 1106 1206 1456 1889 2173 2267 2404 2108 1853 1743 1851 2084 1600 1642 1584 1022 989 745 722 696 674 771 637 1441 1495 1298 1496 1282
0 0 0 0 41 72 267 545 813 767 899 1004 935 944 1060 1070 1056 1112 1111 1211 1140 1177 1303 1381 1685 2082 2204 2221 2221 1833 1924 1778 1804 1647 1352 1295 1234 1082 832 1181 899 696 620 744 1263 1486 1412 1501 1604
0 0 0 0 14 42 145 190 339 724 929 1146 1111 1088 1136 1191 1193 1276 1326 1388 1381 1398 1392 1390 1618 1885 2098 2046 2062 1937 1958 2113 1920 2030 1476 1261 1248 1067 1122 1003 503 1071 1091 1421 1482 1538 1660 1647 1531
0 0 0 0 0 0 45 14 48 332 1026 1205 1223 1171 1157 1317 1344 1406 1385 1374 1398 1491 1485 1430 1356 1475 1820 1911 2047 2028 2111 1890 1121 685 1970 1535 1506 1118 1129 669 1095 1297 1366 1246 1399 1421 1487 1403 1444
0 0 0 0 0 0 0 0 0 68 931 1076 1202 1182 1227 1319 1389 1494 1430 1435 1448 1528 1547 1206 1348 1385 1699 2093 2190 2238 2030 2126 1807 831 1239 1491 1538 1432 1457 1051 1358 1452 1076 1331 1425 1172 1268 1114 1058
0 0 0 0 0 0 0 0 0 198 780 1108 980 938 1093 1281 1424 1420 1319 1306 1537 1573 1677 1552 1193 1714 1830 1915 2111 1833 1602 1826 1118 788 1008 1204 1627 1733 1130 1173 1630 772 1833 1250 1218 1300 1120 920 1011
0 0 0 0 0 0 0 0 0 0 377 604 995 926 722 839 1086 1314 1370 1290 1244 1561 1642 1872 1840 2057 1962 1860 1601 1541 1429 1979 847 429 978 1450 1880 1684 1309 755 1317 1260 1418 1183 1775 1592 1403 1398 809
0 0 0 0 0 0 0 0 0 0 0 255 776 959 968 833 649 663 1293 1390 842 1057 1636 1858 2103 2249 2057 1918 1819 1671 1721 1557 1518 1753 1698 1897 1648 1786 1650 568 1460 1619 1280 1740 1805 1787 1829 1899 1393
0 0 0 0 0 0 0 0 0 0 0 0 186 861 1039 1092 793 684 1080 1511 1324 1163 1665 1820 2214 2273 2201 2141 1954 1551 1433 1339 1409 1410 1511 1658 1722 1602 1370 984 669 1684 1856 1477 1730 1646 1720 1798 1703
0 0 0 0 0 0 0 0 0 0 0 0 0 76 581 1093 1171 865 895 1395 1480 1559 559 1460 2129 2217 2154 2142 1895 1937 2004 1967 1550 1902 1767 1756 1666 1694 1661 1764 1546 899 1183 1568 1552 1498 1656 1674 1787
0 0 0 0 0 0 0 0 0 156 283 323 7 233 54 105 580 1041 1111 1189 1515 1537 1112 1536 1810 1858 2044 2081 2157 2178 2102 1798 1707 1463 1615 1693 1724 1575 1586 1727 1688 1070 1167 1170 1161 1238 1754 1573 1748
0 0 0 0 0 0 0 0 0 380 312 534 629 804 639 124 290 720 1056 1214 1441 1562 1479 1326 1710 1799 2032 2022 2128 2135 2170 2044 1602 1561 1518 1377 1408 1420 1457 1596 1551 1517 1213 1032 910 1150 1616 1663 1317
0 0 0 0 0 0 0 0 0 259 571 676 798 856 456 359 681 920 1154 1332 1499 1589 1579 1524 1311 1731 1890 1924 2042 2118 2130 2080 1900 1923 1536 1369 1200 1233 1247 1395 750 312 884 1057 1067 1342 1618 1920 1888
0 0 0 0 0 0 0 0 4 431 627 940 839 690 716 756 1041 1153 1330 1535 1372 1496 1613 1447 1730 2029 1669 1674 1963 2148 2186 1983 1793 1835 1651 1532 1276 1111 1092 1193 862 157 510 927 1416 1368 2179 1788 1543
0 0 0 0 0 0 0 1 140 526 724 1071 1096 992 1049 1063 1148 1258 1379 1513 1037 1673 1725 1687 1756 1638 561 1004 1946 1885 1862 1955 1886 2026 1785 1692 1639 1383 1243 657 443 561 669 682 1140 1909 1528 1598 1645
0 0 0 0 0 0 0 0 0 660 737 1140 1234 1189 1253 1283 1233 1315 1293 1089 1176 1246 1735 1798 1263 968 795 875 932 1566 1664 1982 1982 2111 1879 1725 1694 918 1025 206 148 700 554 786 1280 1372 1587 1225 960
0 0 0 0 0 0 0 0 0 196 751 798 834 1106 1305 1349 969 695 774 623 672 1376 1854 1817 1812 1707 1863 1921 1865 1808 1799 1309 1987 1938 1937 1775 1634 876 567 181 223 664 500 794 1712 1567 1417 1434 1533
0 0 0 0 0 0 0 0 1 605 490 452 820 1115 1470 1348 1079 741 563 451 732 640 606 502 924 2036 2224 2150 2165 2006 2055 1970 992 836 1027 1807 1729 1335 304 677 964 873 939 1437 1649 1727 854 1314 1243
CIN
-188 -115 -404 -366 -82 -33 -29 -22 -52 -25 -33 -76 -111 -62 -42 -48 -9 0 0 -140 -84 -32 -2 0 0 0 0 -1 0 0 0 0 0 0 0 0 0 0 0 -1 0 -1 -2 -4 -4 -3 0 0 0
-256 -283 -351 -314 -36 -20 -16 -34 -24 -28 -45 -80 -69 -76 -81 -45 -114 0 -160 -125 -45 -30 -6 0 0 0 0 0 -1 0 0 -1 -1 0 0 0 0 0 0 -1 0 0 -2 -5 -8 -9 -1 0 0
-372 -286 -130 -96 -83 -23 -12 -31 -33 -40 -57 -77 -70 -152 -165 -96 -29 0 -195 -112 -38 -9 -7 0 0 0 0 0 0 0 0 0 -4 -6 -8 0 0 0 0 0 0 0 -1 -5 -13 -14 -9 -5 -8
-294 -226 -198 -34 -25 -43 -34 -35 -45 -34 -31 -76 -115 -85 -205 -256 -27 -196 -198 -85 -41 -10 -2 0 0 0 0 0 0 0 -2 -3 -4 -6 -2 0 -1 0 0 0 0 0 0 0 -1 -4 -7 -15 -20
-260 -213 -48 -37 -59 -61 -67 -51 -37 -33 -27 -39 -74 -116 -305 -125 -175 -204 -185 -82 -33 -10 0 0 0 0 0 0 0 0 -2 0 -4 -1 -18 -3 0 -1 0 0 0 0 0 0 0 -2 -6 -10 -11
-133 -208 -39 -28 -21 -40 -65 -49 -32 -32 -40 -58 -99 -188 -121 -102 -132 -192 -136 -81 -24 -15 0 0 0 0 0 0 0 0 0 0 -2 -9 -7 -3 -8 -3 -1 0 0 0 0 0 -2 -1 0 -6 -6
-80 -78 -54 -26 -27 -30 -29 -41 -33 -37 -53 -51 -69 -63 -100 -98 -143 -154 -126 -104 -23 -5 -3 -4 0 0 0 0 0 0 0 0 0 -7 -5 -3 -1 -18 -5 -1 0 0 0 0 0 -1 -1 -1 -3
-160 -80 -37 -47 -24 -14 -34 -32 -56 -48 -42 -103 -91 -38 -79 -96 -143 -133 -122 -131 -96 -23 -8 -10 -1 0 0 0 0 0 0 0 0 0 -5 -1 -14 -16 -17 -17 -2 0 0 0 0 -1 -1 -1 -2
0 -74 -20 -20 -26 -18 -55 -35 -67 -87 -81 -107 -102 -71 -91 -141 -145 -133 -113 -97 -88 -47 -19 -14 -10 0 0 0 0 0 -1 0 0 -4 -2 -3 -3 -11 0 -18 -1 -1 -1 -1 0 0 -1 -1 -1
0 -105 -79 -65 -34 -25 -41 -51 -65 -71 -85 -99 -91 -118 -125 -134 -137 -129 -132 -137 -132 -70 -40 -30 -24 -17 -1 -3 0 0 0 -2 -20 0 0 0 -25 -10 -13 -21 -2 0 0 -1 -1 0 -3 -2 0
-6 0 -33 -43 -19 -43 -40 -65 -77 -65 -41 -56 -71 -129 -111 -128 -128 -128 -123 -137 -150 -90 -52 -51 -12 -1 0 0 0 -1 0 -3 -4 -1 -1 0 0 -2 -2 0 -1 -1 0 0 -8 -1 0 0 0
0 0 -24 -47 -66 -73 -47 -66 -62 -81 -49 -71 -110 -175 -154 -120 -106 -111 -131 -138 -143 -96 -69 -43 -16 0 0 0 0 0 -1 0 0 0 0 -1 -1 0 0 0 -1 0 -2 -2 -9 0 0 0 0
-9 0 0 -60 -84 -74 -91 -66 -73 -89 -102 -156 -196 -221 -166 -111 -98 -98 -106 -117 -106 -87 -77 -48 -13 0 0 0 0 0 -3 0 -2 -1 0 -3 -3 0 0 -1 0 0 -2 -8 -1 0 0 0 -1
0 0 0 0 -63 -78 -73 -83 -104 -98 -177 -178 -203 -202 -176 -141 -110 -102 -102 -102 -102 -93 -85 -65 -35 -5 0 0 0 0 0 0 0 0 0 0 0 0 0 0 0 -5 -25 -10 0 0 0 0 0
0 0 0 0 -82 -58 -100 -64 -88 -116 -188 -169 -166 -166 -179 -172 -136 -119 -114 -94 -96 -91 -81 -87 -52 -27 -5 0 0 0 0 0 -1 0 0 0 0 -3 0 -2 -42 -2 -8 -1 0 0 0 0 -2
0 0 0 0 0 0 -67 -15 -88 -172 -205 -172 -174 -178 -189 -180 -156 -136 -101 -91 -87 -91 -105 -99 -87 -71 -37 -22 -7 -1 0 0 -33 -46 -3 -3 0 -10 -1 -25 -3 -5 -2 -1 0 0 0 -4 -8
0 0 0 0 0 0 0 0 0 -157 -187 -159 -191 -181 -185 -182 -181 -142 -117 -84 -74 -78 -94 -135 -114 -84 -50 -30 -18 -5 -4 -7 -21 -32 -1 -7 -8 -6 0 -10 -3 -12 -8 0 0 0 -2 -4 -12
0 0 0 0 0 0 0 0 0 -211 -192 -179 -217 -212 -216 -183 -163 -139 -103 -118 -91 -99 -97 -120 -145 -83 -54 -42 -23 -22 -24 -17 -55 -40 -12 -19 -7 -5 -22 -9 -8 -38 -1 -1 -3 -2 -4 -11 -6
0 0 0 0 0 0 0 0 0 0 -187 -185 -252 -229 -215 -232 -150 -139 -135 -121 -177 -128 -104 -117 -90 -82 -52 -47 -45 -32 -24 -8 -59 -98 -32 -8 -14 -10 -23 -49 -12 -11 -1 -3 0 0 -1 -3 -21
0 0 0 0 0 0 0 0 0 0 0 -223 -224 -231 -198 -201 -88 -224 -144 -177 -370 -356 -170 -102 -81 -60 -81 -53 -54 -29 -36 -36 -26 -32 -25 -9 -16 -9 -10 -68 -4 -3 -2 -2 -2 0 -1 -3 -4
0 0 0 0 0 0 0 0 0 0 0 0 -287 -232 -175 -178 -210 -86 -210 -184 -143 -206 -150 -105 -65 -75 -94 -69 -57 -51 -41 -49 -31 -25 -27 -20 -19 -18 -29 -41 -50 -6 -2 0 -13 -2 -1 -2 -8
0 0 0 0 0 0 0 0 0 0 0 0 0 -263 -176 -172 -213 -233 -223 -200 -237 -179 -206 -159 -98 -129 -98 -73 -67 -51 -36 -25 -27 -22 -24 -27 -23 -20 -11 -6 -12 -48 -21 0 0 -2 0 -2 -1
0 0 0 0 0 0 0 0 0 -173 -68 -160 -251 -210 -218 -199 -179 -221 -229 -246 -215 -194 -163 -119 -164 -156 -116 -76 -46 -47 -39 -32 -35 -38 -23 -14 -13 -23 -18 -9 -7 -22 -8 -2 -1 0 0 0 -9
0 0 0 0 0 0 0 0 0 -91 -212 -212 -207 -192 -238 -230 -253 -246 -259 -290 -239 -205 -208 -214 -160 -136 -127 -102 -60 -36 -35 -51 -59 -44 -23 -11 -4 -8 -15 -9 -12 -5 -9 -13 -13 -2 0 0 -13
0 0 0 0 0 0 0 0 0 -154 -192 -253 -250 -250 -339 -347 -316 -323 -339 -334 -316 -270 -267 -196 -208 -191 -189 -174 -120 -84 -47 -29 -56 -39 -25 -23 -19 -21 -18 -9 -50 -63 -29 -9 -1 0 0 -2 -2
0 0 0 0 0 0 0 0 -20 -167 -205 -215 -281 -321 -391 -368 -341 -320 -325 -302 -295 -234 -249 -345 -330 -203 -211 -189 -127 -111 -70 -47 -45 -49 -37 -24 -21 -21 -20 -11 -20 -83 -27 -12 0 0 0 -8 -4
0 0 0 0 0 0 0 -4 -79 -139 -117 -175 -209 -249 -278 -265 -277 -280 -304 -301 -336 -244 -200 -170 -203 -219 -329 -249 -216 -194 -129 -87 -50 -60 -58 -37 -31 -26 -18 -25 -18 -6 -4 -10 -2 0 -1 -3 -3
0 0 0 0 0 0 0 0 0 -77 -74 -136 -167 -195 -215 -209 -230 -251 -366 -389 -314 -244 -192 -147 -190 -133 -119 -281 -287 -209 -174 -105 -40 -17 -45 -51 -35 -50 -24 -58 -61 0 -2 -1 0 0 -1 -11 -29
0 0 0 0 0 0 0 0 0 -121 -119 -145 -164 -203 -208 -138 -228 -128 -71 -158 -415 -221 -137 -110 -96 -105 -96 -102 -167 -197 -181 -145 -46 -12 -23 -40 -46 -57 -36 -71 -47 -1 -3 -3 0 0 -1 -11 -6
0 0 0 0 0 0 0 0 -11 -123 -137 -116 -131 -182 -179 -222 -249 -45 -42 -382 -52 -345 -348 -239 -209 -62 -89 -104 -104 -126 -131 -81 -90 -55 -77 -36 -52 -38 -53 -34 -8 -8 0 0 0 0 -21 -8 -10
Wind_Speed
6 9 11 7 6 3 5 4 9 14 12 nan nan 10 12 3 nan nan nan nan 16 15 12 12 11 11 11 12 14 16 14 13 15 13 14 15 16 18 18 14 16 16 16 15 14 14 13 15 16
9 11 9 nan 1 1 5 5 8 9 9 15 8 7 6 4 nan nan nan nan 15 16 13 11 11 11 10 11 14 12 13 16 18 18 12 9 15 18 17 16 16 16 17 15 14 12 11 11 12
9 9 6 6 9 11 9 8 12 17 16 7 3 nan nan 4 nan nan nan 20 14 13 15 12 10 10 9 11 12 11 14 15 17 13 8 11 12 16 16 15 15 16 16 15 14 10 10 9 10
3 7 8 8 8 12 8 11 13 12 7 5 9 6 nan nan nan nan nan 19 16 14 13 15 14 10 9 9 9 9 11 13 18 18 12 7 9 13 13 12 13 14 16 14 12 9 8 6 7
3 7 4 1 8 7 10 9 11 7 2 3 7 9 nan 4 5 nan 20 17 17 15 13 15 11 10 10 10 9 12 15 17 18 16 16 16 9 7 6 8 10 12 14 12 12 9 7 6 5
6 5 8 8 3 4 6 5 8 5 4 10 11 nan 13 9 12 nan 18 17 17 16 13 14 12 7 7 11 12 13 16 20 21 24 22 11 17 5 7 6 8 9 9 9 9 8 9 7 7
11 6 9 6 4 1 3 7 6 5 6 6 9 9 11 15 15 20 nan 15 16 15 13 11 12 10 10 7 9 12 15 18 21 24 24 16 10 7 13 7 8 8 7 8 8 9 9 8 7
7 1 3 7 2 1 3 2 7 6 11 11 7 12 15 17 17 16 15 nan 15 14 13 11 10 10 9 7 10 11 13 14 18 22 18 16 nan nan 13 6 6 5 4 5 5 10 8 9 6
nan nan 2 2 4 6 3 3 4 4 11 10 9 9 11 24 19 18 17 16 16 15 16 15 12 9 9 9 10 13 15 15 19 23 12 8 nan nan nan 9 6 6 2 2 8 11 10 10 9
nan nan nan 7 6 9 6 5 9 9 9 10 12 11 21 26 22 22 21 17 17 17 17 15 13 12 11 9 9 9 8 8 7 14 14 4 nan nan nan nan 12 8 6 6 11 12 11 12 9
nan nan nan nan 10 11 4 6 11 7 5 10 12 19 23 25 23 19 17 17 17 17 16 17 13 12 12 10 8 3 2 3 5 11 8 9 7 6 6 5 6 7 6 6 9 9 8 8 8
nan nan nan nan 11 11 11 10 14 16 6 4 15 23 26 26 22 18 18 20 19 19 16 17 15 12 11 6 8 8 3 3 4 7 9 2 3 7 4 4 7 5 4 7 9 9 7 6 10
nan nan nan nan 8 14 13 18 18 22 15 11 20 25 26 27 25 22 21 20 16 18 17 15 14 14 11 9 7 7 7 4 5 7 6 2 6 5 4 5 6 5 4 7 8 7 3 3 6
nan nan nan nan nan nan 16 14 15 13 17 20 24 25 26 28 29 22 20 20 17 12 13 14 15 13 12 11 9 5 5 6 6 9 4 3 5 3 1 1 3 3 3 5 6 7 5 5 6
nan nan nan nan nan nan 10 17 20 16 17 22 26 24 24 26 24 25 23 20 19 14 11 12 13 15 14 14 11 7 5 7 9 3 3 2 3 3 1 3 4 4 0 3 7 8 7 5 6
nan nan nan nan nan nan nan nan nan 12 14 18 23 24 25 29 32 30 23 19 19 16 16 14 11 15 16 15 11 8 7 8 11 9 5 4 3 3 3 2 3 2 2 3 6 6 6 7 8
nan nan nan nan nan nan nan nan nan nan 11 15 19 23 25 26 29 27 17 20 16 14 14 12 10 12 13 13 10 8 7 7 12 10 11 6 2 2 3 2 2 2 4 3 6 6 4 7 7
nan nan nan nan nan nan nan nan nan 4 13 17 21 24 24 26 30 24 28 25 14 13 16 18 13 10 12 10 9 7 7 1 14 17 11 11 6 2 1 3 3 5 4 4 3 5 2 4 4
nan nan nan nan nan nan nan nan nan nan 16 19 18 18 23 25 20 22 23 24 12 22 20 20 19 16 12 10 10 8 8 6 12 11 9 5 4 1 1 1 4 2 3 5 3 4 6 2 3
nan nan nan nan nan nan nan nan nan nan nan 15 13 16 21 21 20 21 25 32 30 22 20 25 24 17 14 10 10 5 9 7 10 8 10 4 4 3 2 4 2 1 3 6 7 2 4 4 2
nan nan nan nan nan nan nan nan nan nan nan nan 8 18 18 20 19 23 29 36 34 23 18 22 21 21 14 12 7 6 6 4 4 3 0 5 5 4 3 4 7 4 6 7 8 8 4 7 5
nan nan nan nan nan nan nan nan nan nan nan nan nan nan 12 15 18 22 32 41 40 40 31 27 22 18 14 13 10 9 5 4 3 2 2 8 8 9 6 3 5 8 8 7 7 7 6 5 5
nan nan nan nan nan nan nan nan nan 11 10 18 nan 12 nan 18 20 24 29 37 40 40 33 25 12 19 17 12 7 7 6 2 2 3 1 4 9 11 6 7 8 10 6 5 7 7 6 7 9
nan nan nan nan nan nan nan nan nan 8 7 11 15 16 10 5 7 17 24 30 38 29 33 41 21 12 15 13 9 4 3 3 3 4 5 6 9 9 9 8 12 11 10 7 7 5 5 7 10
nan nan nan nan nan nan nan nan nan 7 8 6 16 18 13 13 14 21 30 31 36 39 32 39 27 22 16 14 13 10 5 3 4 3 5 7 10 8 8 11 13 17 15 12 9 9 8 12 12
nan nan nan nan nan nan nan nan nan 11 9 7 7 12 17 15 17 21 30 21 29 26 36 32 33 24 20 14 13 11 9 9 7 6 6 9 11 11 11 11 14 15 15 15 17 12 10 12 12
nan nan nan nan nan nan nan nan 10 15 15 17 15 13 14 18 26 28 20 30 20 23 30 25 27 29 25 14 16 12 11 10 10 7 7 9 12 14 14 14 18 12 14 16 18 18 13 12 14
nan nan nan nan nan nan nan nan nan 16 17 21 22 17 16 18 24 28 23 22 24 24 26 26 27 29 22 17 10 14 13 14 12 12 10 8 12 14 15 18 14 8 7 9 14 16 13 13 15
nan nan nan nan nan nan nan nan nan 16 19 19 22 20 17 22 32 32 29 27 24 23 26 27 27 23 20 10 5 9 16 27 18 9 10 4 12 18 20 16 7 10 10 11 12 16 16 16 15
nan nan nan nan nan nan nan nan nan 23 22 20 20 23 22 25 31 33 30 31 30 28 26 25 23 17 19 9 0 9 13 29 30 14 12 4 13 20 21 9 9 12 12 10 13 14 18 15 17
Wind_Direction
35 16 353 355 126 359 24 40 46 11 15 nan nan 40 53 51 nan nan nan nan 340 345 351 334 320 315 320 325 330 324 317 328 328 325 321 301 312 311 309 301 302 307 301 300 299 298 296 285 284
9 13 2 nan 39 36 15 21 350 337 323 330 344 23 63 26 nan nan nan nan 340 342 347 336 325 321 325 329 331 328 325 332 323 316 316 304 315 315 317 307 303 306 301 301 302 299 295 290 291
26 7 18 309 334 343 334 328 318 310 332 356 19 nan nan 71 nan nan nan 337 338 344 338 332 322 319 327 345 352 5 353 337 313 328 306 319 326 316 320 312 308 310 308 308 304 306 304 304 301
22 327 298 265 295 339 329 334 320 315 304 309 303 306 nan nan nan nan nan 336 333 337 338 330 328 323 344 355 0 359 359 335 318 351 324 341 357 331 317 303 310 318 323 318 323 321 309 310 310
253 279 244 311 294 329 323 339 330 327 290 320 11 354 nan 26 5 nan 338 337 328 334 330 329 330 319 341 354 348 346 351 340 345 303 319 324 334 349 328 323 325 329 321 330 336 340 351 358 342
275 241 233 294 312 336 20 1 344 336 330 38 8 nan 357 333 320 nan 345 339 330 330 329 321 322 326 330 346 351 351 347 348 344 334 345 353 345 74 77 350 336 344 337 339 358 15 20 23 30
275 245 235 243 293 181 23 347 353 352 359 29 1 341 343 350 324 335 nan 339 332 329 326 319 321 328 334 341 340 342 350 350 350 349 343 340 343 53 98 53 4 355 348 349 19 47 39 48 79
283 25 197 238 244 199 354 317 344 8 351 338 1 347 349 352 349 343 340 nan 331 331 324 323 317 327 337 339 349 347 350 354 354 352 350 356 nan nan 87 92 51 13 13 6 36 60 63 65 96
nan nan 288 106 104 133 348 312 323 313 326 328 324 335 342 338 350 350 346 340 340 341 340 335 329 330 337 349 357 1 357 2 7 5 3 10 nan nan nan 89 66 40 38 68 79 70 67 80 96
nan nan nan 63 69 108 62 77 42 26 346 332 325 313 332 338 351 359 357 358 359 356 357 349 347 339 344 2 6 10 6 11 355 16 17 63 nan nan nan nan 56 51 58 81 96 97 91 77 111
nan nan nan nan 58 64 60 101 65 50 7 4 356 334 345 348 354 4 4 1 358 354 0 1 355 348 355 357 0 3 29 329 11 21 14 13 20 28 48 66 66 53 57 78 98 98 82 87 115
nan nan nan nan 54 57 63 48 63 65 65 72 354 352 354 0 6 4 356 357 355 354 357 356 359 354 356 355 0 349 4 328 341 354 17 328 355 0 19 51 47 64 79 88 98 112 91 84 103
nan nan nan nan 56 76 50 48 58 65 56 1 351 359 6 11 15 13 5 358 343 348 339 349 0 2 345 347 354 7 339 338 319 314 346 349 30 31 72 68 49 66 82 97 92 97 125 108 99
nan nan nan nan nan nan 71 73 58 70 18 355 0 11 12 17 13 14 14 10 4 358 348 344 357 7 3 356 352 353 338 329 292 281 301 357 47 22 42 14 357 70 74 78 87 94 123 110 121
nan nan nan nan nan nan 92 95 74 74 29 8 6 13 14 20 19 20 14 17 11 11 353 356 6 6 10 12 6 334 326 322 319 309 263 333 31 358 231 292 230 102 28 92 92 104 130 84 97
nan nan nan nan nan nan nan nan nan 66 36 26 12 360 15 21 27 30 27 25 22 13 12 1 5 10 5 3 354 342 321 326 290 210 187 315 354 17 244 180 147 157 159 128 110 117 138 120 121
nan nan nan nan nan nan nan nan nan nan 70 43 21 0 8 21 27 27 27 40 15 28 22 15 12 14 10 359 349 344 342 287 285 272 187 177 314 358 78 174 191 257 189 172 127 126 121 120 103
nan nan nan nan nan nan nan nan nan 161 87 61 32 7 6 14 27 15 354 25 13 20 20 27 11 18 3 354 340 330 330 39 288 291 169 173 173 81 307 139 140 204 185 191 198 109 128 152 168
nan nan nan nan nan nan nan nan nan nan 84 77 51 13 11 16 11 360 350 331 48 23 15 13 22 6 356 354 335 338 334 352 317 10 130 131 146 160 244 56 143 115 142 153 156 122 104 131 141
nan nan nan nan nan nan nan nan nan nan nan 94 51 23 21 18 13 345 338 341 17 32 25 29 20 11 359 5 351 336 325 358 344 14 121 143 231 239 281 257 246 248 227 209 208 324 211 200 218
nan nan nan nan nan nan nan nan nan nan nan nan 49 20 22 34 17 349 358 359 2 14 45 35 25 8 359 2 335 319 289 283 347 22 152 242 258 270 276 264 260 252 266 215 227 259 217 192 218
nan nan nan nan nan nan nan nan nan nan nan nan nan nan 39 44 25 357 355 8 4 359 13 13 12 1 4 355 349 1 18 14 29 6 299 277 271 275 283 268 284 269 240 197 197 217 210 217 205
nan nan nan nan nan nan nan nan nan 186 191 187 nan 229 nan 57 30 355 358 357 359 355 1 333 24 1 350 344 18 351 20 30 235 249 208 285 281 300 262 278 280 286 234 194 189 206 237 227 226
nan nan nan nan nan nan nan nan nan 232 213 175 185 183 168 85 360 333 339 346 357 348 7 347 342 8 343 343 333 345 357 334 253 237 239 242 251 267 293 279 285 267 231 221 222 218 229 238 260
nan nan nan nan nan nan nan nan nan 241 229 192 172 188 222 270 311 326 346 352 356 5 356 355 347 343 334 340 330 324 337 304 301 263 225 234 242 242 278 280 289 241 241 236 218 238 242 252 263
nan nan nan nan nan nan nan nan nan 279 276 271 272 245 254 284 310 325 342 344 297 358 356 359 352 328 331 312 325 318 317 278 269 282 256 244 250 244 263 276 281 262 243 241 237 241 233 248 234
nan nan nan nan nan nan nan nan 289 281 276 267 264 269 284 307 317 323 289 308 296 341 351 357 355 338 342 327 299 313 307 304 276 275 275 269 272 259 273 284 272 273 249 247 234 230 219 254 236
nan nan nan nan nan nan nan nan nan 298 295 289 290 290 305 322 301 296 296 288 294 301 337 336 335 343 340 322 307 318 315 294 263 256 263 288 280 276 278 292 269 251 216 204 216 211 223 257 238
nan nan nan nan nan nan nan nan nan 303 288 275 275 277 285 285 284 289 280 283 283 292 303 335 336 347 348 352 283 325 308 271 239 244 257 269 292 300 290 294 248 205 208 201 213 210 229 247 222
nan nan nan nan nan nan nan nan nan 295 287 283 282 276 270 274 279 284 281 283 283 283 292 301 316 356 5 11 79 326 300 306 303 259 220 318 327 311 299 262 220 210 199 204 211 214 233 218 217